Greybull, WY

5:10 PM MST on December 15, 2019 (GMT -0700)
South Big Horn County

Weather History for KGEY - October, 2019

Change the Weather History Date:

Wednesday, October 16, 2019

  Actual Average Record
Temperature  
Mean Temperature 52 °F 46 °F  
Max Temperature 68 °F 60 °F 70 °F (2012)
Min Temperature 36 °F 32 °F 23 °F (2018)
Degree Days  
Heating Degree Days 13 19  
Month to date heating degree days 368 258  
Since 1 July heating degree days 543 489  
Cooling Degree Days 0 0  
Month to date cooling degree days 0 0  
Year to date cooling degree days 733 669  
Growing Degree Days 2 (Base 50)    
Moisture  
Dew Point 33 °F    
Average Humidity 55    
Maximum Humidity 82    
Minimum Humidity 27    
Precipitation  
Precipitation 0.00 in 0.03 in 0.08 in (2011)
Month to date precipitation 0.26 0.40  
Year to date precipitation 7.58 6.73  
Sea Level Pressure  
Sea Level Pressure 30.01 in    
Wind  
Wind Speed 3 mph (SE)    
Max Wind Speed 10 mph    
Max Gust Speed 14 mph    
Visibility 10 miles    
Events      
T = Trace of Precipitation, MM = Missing Value Source: NWS Daily Summary

Daily Weather History Graph

Daily Weather History Graph

Search for Another Location

Airport or City:

Astronomy

Oct. 16, 2019 Rise Set
Actual Time 7:28 AM MDT 6:26 PM MDT
Civil Twilight 6:59 AM MDT 6:55 PM MDT
Nautical Twilight 6:25 AM MDT 7:29 PM MDT
Astronomical Twilight 5:51 AM MDT 8:03 PM MDT
Moon 8:16 PM MDT 10:07 AM MDT
Length of Visible Light 11h 56m
Length of Day
10h 57m
Waning Gibbous, 92% of the Moon is Illuminated
Oct 16
Waning Gibbous
Oct 21
Last Quarter
Oct 27
New
Nov 4
First Quarter
Nov 12
Full

Hourly Weather History & Observations

Time (MDT) Temp. Windchill Dew Point Humidity Pressure Visibility Wind Dir Wind Speed Gust Speed Precip Events Conditions
12:53 AM 37.9 °F - 30.0 °F 73% 30.15 in 10.0 mi Calm Calm - N/A   Clear
1:53 AM 39.0 °F - 30.9 °F 73% 30.14 in 10.0 mi Calm Calm - N/A   Clear
2:53 AM 37.9 °F 35.5 °F 30.9 °F 76% 30.12 in 10.0 mi SE 3.5 mph - N/A   Clear
3:53 AM 37.9 °F - 30.9 °F 76% 30.10 in 10.0 mi North - - N/A   Clear
4:53 AM 39.0 °F 36.8 °F 30.9 °F 73% 30.09 in 10.0 mi SSE 3.5 mph - N/A   Clear
5:53 AM 37.0 °F - 30.9 °F 79% 30.09 in 10.0 mi Calm Calm - N/A   Clear
6:53 AM 37.0 °F - 32.0 °F 82% 30.09 in 10.0 mi Calm Calm - N/A   Clear
7:53 AM 37.0 °F - 30.9 °F 79% 30.10 in 10.0 mi Calm Calm - N/A   Clear
8:53 AM 37.0 °F 33.3 °F 32.0 °F 82% 30.13 in 10.0 mi NW 4.6 mph - N/A   Clear
9:53 AM 39.9 °F - 33.1 °F 77% 30.13 in 10.0 mi Calm Calm - N/A   Clear
10:53 AM 42.1 °F - 33.1 °F 70% 30.12 in 10.0 mi Calm Calm - N/A   Clear
11:53 AM 50.0 °F - 33.1 °F 52% 30.09 in 10.0 mi ESE 4.6 mph - N/A   Clear
12:53 PM 57.0 °F - 34.0 °F 42% 30.04 in 10.0 mi SSE 4.6 mph - N/A   Clear
1:53 PM 61.0 °F - 35.1 °F 38% 29.99 in 10.0 mi SE 5.8 mph - N/A   Clear
2:53 PM 64.9 °F - 34.0 °F 32% 29.95 in 10.0 mi South 9.2 mph - N/A   Clear
3:53 PM 66.9 °F - 34.0 °F 30% 29.91 in 10.0 mi South 5.8 mph - N/A   Clear
4:53 PM 68.0 °F - 34.0 °F 28% 29.89 in 10.0 mi SSW 5.8 mph - N/A   Clear
5:53 PM 64.0 °F - 35.1 °F 34% 29.89 in 10.0 mi SW 4.6 mph - N/A   Clear
6:53 PM 57.0 °F - 34.0 °F 42% 29.91 in 10.0 mi Calm Calm - N/A   Clear
7:53 PM 54.0 °F - 35.1 °F 49% 29.90 in 10.0 mi East 5.8 mph - N/A   Clear
8:53 PM 53.1 °F - 37.0 °F 55% 29.89 in 10.0 mi ESE 6.9 mph - N/A   Clear
9:53 PM 50.0 °F - 36.0 °F 59% 29.89 in 10.0 mi ESE 5.8 mph - N/A   Clear
10:53 PM 46.9 °F - 35.1 °F 63% 29.88 in 10.0 mi ESE 3.5 mph - N/A   Clear
11:53 PM 45.0 °F 42.6 °F 34.0 °F 65% 29.84 in 10.0 mi SE 4.6 mph - N/A   Clear